Location: Kuffner-Sternwarte
(48.2130°N, 16.2960°E)
Time: 05:05:32
(UTC+01:00)

COROT - Pass Details

Date: 19 May 2017
Orbit: 602 x 887 km, 90.0° (Epoch: 24 November)

Event Time Altitude Azimuth Distance (km) Brightness Sun altitude
Rises 22:30:13 0° 356° (N) 3,278 10.3 -14.9°
Reaches altitude 10° 22:32:43 10° 351° (N) 2,299 9.5 -15.1°
Maximum altitude 22:37:33 45° 280° (W) 970 6.8 -15.6°
Drops below altitude 10° 22:41:59 10° 208° (SSW) 2,110 8.0 -16.0°
Enters shadow 22:42:23 - 206° (SSW) 2,266 8.1 -16.0°
